Location: Herm
(49.4830°N, 2.4500°W)
Time: 08:08:48
(UTC+00:00)

NOAA 15 - Pass Details

Date: 01 November 2021
Orbit: 797 x 813 km, 98.7° (Epoch: 08 December)

Event Time Altitude Azimuth Distance (km) Brightness Sun altitude
Rises 18:02:15 0° 140° (SE) 3,324 7.5 -12.5°
Reaches altitude 10° 18:04:42 10° 133° (SE) 2,398 6.7 -12.9°
Maximum altitude 18:09:37 40° 65° (ENE) 1,180 5.0 -13.7°
Drops below altitude 10° 18:14:34 10° 357° (N) 2,414 7.0 -14.5°
Sets 18:17:02 0° 351° (N) 3,349 7.9 -14.9°
